Topeka, KS

1:59 AM CDT on June 28, 2017 (GMT -0500)
Billard Municipal

Weather History for KTOP - December, 2014

Change the Weather History Date:

Tuesday, December 9, 2014

  Actual Average Record
Temperature  
Mean Temperature 32 °F 33 °F  
Max Temperature 37 °F 43 °F 70 °F (2015)
Min Temperature 27 °F 24 °F -7 °F (2005)
Degree Days  
Heating Degree Days 33 32  
Month to date heating degree days 254 273  
Since 1 July heating degree days 1285 1267  
Cooling Degree Days 0 0  
Month to date cooling degree days 0 0  
Year to date cooling degree days 1611 1422  
Moisture  
Dew Point 25 °F    
Average Humidity 75    
Maximum Humidity 85    
Minimum Humidity 64    
Precipitation  
Precipitation 0.00 in 0.04 in 1.50 in (1911)
Month to date precipitation 1.07 0.46  
Year to date precipitation 29.95 35.57  
Snow  
Snow 0.00 in 0.20 in 5.50 in (1944)
Month to date snowfall 0.0 1.3  
Year to date snowfall 23.5 13.9  
Since 1 July snowfall 0.4 2.6  
Snow Depth 0.00 in    
Sea Level Pressure  
Sea Level Pressure 30.42 in    
Wind  
Wind Speed 6 mph (NNE)    
Max Wind Speed 14 mph    
Max Gust Speed 16 mph    
Visibility 10 miles    
Events      
T = Trace of Precipitation, MM = Missing Value Source: NWS Daily Summary

Daily Weather History Graph

Daily Weather History Graph

Search for Another Location

Airport or City:

Trip Planner

Search our weather history database for the weather conditions in past years. The results will help you decide how hot, cold, wet, or windy it might be!

Date:

Astronomy

Dec. 09, 2014 Rise Set
Actual Time 7:29 AM CST 4:59 PM CST
Civil Twilight 6:59 AM CST 5:29 PM CST
Nautical Twilight 6:26 AM CST 6:03 PM CST
Astronomical Twilight 5:54 AM CST 6:35 PM CST
Moon 8:18 PM CST (12/9) 9:44 AM CST (12/9)
Length of Visible Light 10h 29m
Length of Day
9h 29m
Waning Gibbous, 90% of the Moon is Illuminated
Dec 9
Waning Gibbous
Dec 14
Last Quarter
Dec 21
New
Dec 28
First Quarter
Jan 4
Full

Hourly Weather History & Observations

Time (CST) Temp. Windchill Dew Point Humidity Pressure Visibility Wind Dir Wind Speed Gust Speed Precip Events Conditions
12:53 AM 35.1 °F 29.3 °F 28.0 °F 76% 30.37 in 10.0 mi NNW 6.9 mph - N/A   Clear
1:53 AM 33.1 °F 28.7 °F 26.1 °F 75% 30.38 in 10.0 mi North 4.6 mph - N/A   Clear
2:53 AM 30.9 °F 26.2 °F 25.0 °F 79% 30.40 in 10.0 mi NW 4.6 mph - N/A   Clear
3:53 AM 30.9 °F 26.2 °F 26.1 °F 82% 30.40 in 9.0 mi NNW 4.6 mph - N/A   Clear
4:53 AM 28.0 °F 21.7 °F 23.0 °F 81% 30.42 in 8.0 mi NW 5.8 mph - N/A   Clear
5:53 AM 30.0 °F 25.2 °F 24.1 °F 79% 30.43 in 10.0 mi NNW 4.6 mph - N/A   Clear
6:53 AM 28.0 °F 20.0 °F 21.9 °F 78% 30.45 in 10.0 mi North 8.1 mph - N/A   Clear
7:53 AM 27.0 °F 20.5 °F 21.9 °F 81% 30.48 in 10.0 mi NNW 5.8 mph - N/A   Clear
8:53 AM 28.9 °F 20.4 °F 23.0 °F 78% 30.48 in 10.0 mi North 9.2 mph - N/A   Clear
9:53 AM 32.0 °F 24.2 °F 24.1 °F 73% 30.50 in 10.0 mi NNE 9.2 mph - N/A   Clear
10:53 AM 33.1 °F 25.5 °F 25.0 °F 72% 30.50 in 10.0 mi North 9.2 mph - N/A   Partly Cloudy
11:53 AM 33.1 °F 26.1 °F 24.1 °F 70% 30.47 in 10.0 mi NNE 8.1 mph - N/A   Clear
12:53 PM 35.1 °F 28.6 °F 25.0 °F 67% 30.45 in 10.0 mi NNE 8.1 mph - N/A   Clear
1:53 PM 36.0 °F 32.1 °F 26.1 °F 67% 30.43 in 10.0 mi East 4.6 mph - N/A   Clear
2:53 PM 37.0 °F 31.6 °F 26.1 °F 65% 30.42 in 10.0 mi ENE 6.9 mph - N/A   Clear
3:53 PM 36.0 °F 31.1 °F 26.1 °F 67% 30.41 in 10.0 mi NE 5.8 mph - N/A   Clear
4:53 PM 33.1 °F 27.7 °F 26.1 °F 75% 30.41 in 10.0 mi East 5.8 mph - N/A   Clear
5:53 PM 30.9 °F 23.5 °F 25.0 °F 79% 30.40 in 10.0 mi East 8.1 mph - N/A   Clear
6:53 PM 30.9 °F 23.5 °F 25.0 °F 79% 30.39 in 10.0 mi East 8.1 mph - N/A   Clear
7:53 PM 30.0 °F 23.2 °F 25.0 °F 82% 30.38 in 10.0 mi East 6.9 mph - N/A   Clear
8:53 PM 30.0 °F 26.5 °F 26.1 °F 85% 30.38 in 8.0 mi ENE 3.5 mph - N/A   Clear
9:53 PM 30.0 °F 26.5 °F 26.1 °F 85% 30.40 in 7.0 mi SW 3.5 mph - N/A   Clear
10:19 PM 30.0 °F - 25.0 °F 82% 30.37 in 7.0 mi Calm Calm - N/A   Mostly Cloudy
10:53 PM 30.0 °F 25.2 °F 26.1 °F 85% 30.39 in 7.0 mi ESE 4.6 mph - N/A   Overcast
11:53 PM 30.9 °F 24.3 °F 26.1 °F 82% 30.39 in 10.0 mi ESE 6.9 mph - N/A   Overcast